| time (UTC) | temp F | wind direction | speed knots | gust knots | rain 1hr in | rain 24hr in | rain mn in | humidity % | barometer mb |
| 20260507065849 | 53 | 0 | 0.0 | 0.0 | 0.00 | 0.00 | 0.00 | 99 | |
| 20260507064849 | 53 | 0 | 0.0 | 0.0 | 0.00 | 0.00 | 0.00 | 99 | |
| 20260507063819 | 53 | 0 | 0.0 | 0.0 | 0.00 | 0.00 | 0.00 | 99 | |
| 20260507062749 | 53 | 0 | 0.0 | 0.0 | 0.00 | 0.00 | 0.00 | 99 | |
| 20260507061749 | 54 | 0 | 0.0 | 0.0 | 0.00 | 0.00 | 0.00 | 99 | |
| 20260507060749 | 54 | 0 | 0.0 | 0.0 | 0.00 | 0.00 | 0.00 | 99 | |
| 20260507055719 | 54 | 0 | 0.0 | 0.0 | 0.00 | 0.00 | 0.00 | 99 | |
| 20260507054719 | 54 | 0 | 0.0 | 0.0 | 0.00 | 0.00 | 0.00 | 99 | |
| 20260507053649 | 55 | 0 | 0.0 | 0.0 | 0.00 | 0.00 | 0.00 | 99 | |
| 20260507052619 | 55 | 0 | 0.0 | 0.0 | 0.00 | 0.00 | 0.00 | 99 | |
| 20260507051619 | 55 | 0 | 0.0 | 0.0 | 0.00 | 0.00 | 0.00 | 99 | |
| 20260507050549 | 56 | 0 | 0.0 | 0.0 | 0.00 | 0.00 | 0.00 | 99 | |
| 20260507045519 | 56 | 0 | 0.0 | 0.0 | 0.00 | 0.00 | 0.00 | 97 | |
| 20260507044449 | 57 | 0 | 0.0 | 0.0 | 0.00 | 0.00 | 0.00 | 98 | |
| 20260507043449 | 57 | 0 | 0.0 | 0.0 | 0.00 | 0.00 | 0.00 | 96 | |
| 20260507042419 | 57 | 0 | 0.0 | 0.0 | 0.00 | 0.00 | 0.00 | 95 | |
| 20260507041419 | 58 | 0 | 0.0 | 0.0 | 0.00 | 0.00 | 0.00 | 94 | |
| 20260507040349 | 59 | 0 | 0.0 | 0.0 | 0.00 | 0.00 | 0.00 | 94 | |
| 20260507035319 | 59 | 0 | 0.0 | 0.0 | 0.00 | 0.00 | 0.00 | 92 | |
| 20260507034249 | 60 | 0 | 0.0 | 0.0 | 0.00 | 0.00 | 0.00 | 91 | |
| 20260507033219 | 61 | 0 | 0.0 | 0.0 | 0.00 | 0.00 | 0.00 | 92 | |
| 20260507032149 | 62 | 0 | 0.0 | 0.0 | 0.00 | 0.00 | 0.00 | 89 | |
| 20260507031119 | 63 | 0 | 0.0 | 0.0 | 0.00 | 0.00 | 0.00 | 87 | |
| 20260507030119 | 64 | 0 | 0.0 | 0.0 | 0.00 | 0.00 | 0.00 | 87 | |
| 20260507025049 | 65 | 0 | 0.0 | 0.0 | 0.00 | 0.00 | 0.00 | 84 | |
| 20260507024049 | 66 | 0 | 0.0 | 0.0 | 0.00 | 0.00 | 0.00 | 81 | |
| 20260507023049 | 67 | 0 | 0.0 | 0.0 | 0.00 | 0.00 | 0.00 | 79 | |
| 20260507022020 | 68 | 0 | 0.0 | 0.0 | 0.00 | 0.00 | 0.00 | 76 | |
| 20260507020949 | 67 | 0 | 0.9 | 0.0 | 0.00 | 0.00 | 0.00 | 76 | |
| 20260507015919 | 68 | 0 | 1.7 | 0.0 | 0.00 | 0.00 | 0.00 | 76 | |
| 20260507014919 | 68 | 0 | 1.7 | 0.0 | 0.00 | 0.00 | 0.00 | 75 | |
| 20260507013849 | 68 | 0 | 1.7 | 0.0 | 0.00 | 0.00 | 0.00 | 74 | |
| 20260507012819 | 69 | 0 | 1.7 | 0.0 | 0.00 | 0.00 | 0.00 | 74 | |
| 20260507011749 | 70 | 0 | 0.9 | 0.0 | 0.00 | 0.00 | 0.00 | 72 | |
| 20260507010719 | 69 | 0 | 2.6 | 0.0 | 0.00 | 0.00 | 0.00 | 72 | |
| 20260507005719 | 70 | 0 | 2.6 | 0.0 | 0.00 | 0.00 | 0.00 | 71 | |
| 20260507004649 | 70 | 0 | 2.6 | 0.0 | 0.00 | 0.00 | 0.00 | 71 | |
| 20260507003619 | 71 | 0 | 0.0 | 0.0 | 0.00 | 0.00 | 0.00 | 68 | |
| 20260507002549 | 72 | 0 | 0.9 | 0.0 | 0.00 | 0.00 | 0.00 | 67 | |
| 20260507001519 | 72 | 0 | 1.7 | 0.0 | 0.00 | 0.00 | 0.00 | 67 | |
| 20260507000450 | 74 | 0 | 2.6 | 0.0 | 0.00 | 0.00 | 0.00 | 64 | |
| 20260506235419 | 74 | 0 | 3.5 | 0.0 | 0.00 | 0.00 | 0.00 | 63 | |
| 20260506234349 | 76 | 0 | 2.6 | 0.0 | 0.00 | 0.00 | 0.00 | 62 | |
| 20260506233319 | 74 | 0 | 2.6 | 0.0 | 0.00 | 0.00 | 0.00 | 63 | |
| 20260506232319 | 75 | 0 | 2.6 | 0.0 | 0.00 | 0.00 | 0.00 | 62 | |
| 20260506231249 | 75 | 0 | 1.7 | 0.0 | 0.00 | 0.00 | 0.00 | 63 | |
| 20260506230219 | 73 | 0 | 2.6 | 0.0 | 0.00 | 0.00 | 0.00 | 66 | |
| 20260506225149 | 75 | 0 | 1.7 | 0.0 | 0.00 | 0.00 | 0.00 | 62 | |
| 20260506224119 | 70 | 0 | 3.5 | 0.0 | 0.00 | 0.00 | 0.00 | 70 | |
| 20260506223049 | 71 | 0 | 1.7 | 0.0 | 0.00 | 0.00 | 0.00 | 69 | |
| 20260506222019 | 71 | 0 | 1.7 | 0.0 | 0.00 | 0.00 | 0.00 | 69 | |
| 20260506220949 | 69 | 0 | 1.7 | 0.0 | 0.00 | 0.00 | 0.00 | 71 | |
| 20260506215919 | 68 | 0 | 0.9 | 0.0 | 0.00 | 0.00 | 0.00 | 73 | |
| 20260506214850 | 67 | 0 | 1.7 | 0.0 | 0.00 | 0.00 | 0.00 | 74 | |
| 20260506213849 | 67 | 0 | 1.7 | 0.0 | 0.00 | 0.00 | 0.00 | 75 | |
| 20260506212849 | 66 | 0 | 0.9 | 0.0 | 0.00 | 0.00 | 0.00 | 76 | |
| 20260506211819 | 67 | 0 | 0.0 | 0.0 | 0.00 | 0.00 | 0.00 | 75 | |
| 20260506210819 | 65 | 0 | 2.6 | 0.0 | 0.00 | 0.00 | 0.00 | 77 | |
| 20260506205749 | 64 | 0 | 2.6 | 0.0 | 0.00 | 0.00 | 0.00 | 79 | |
| 20260506204719 | 65 | 0 | 3.5 | 0.0 | 0.00 | 0.00 | 0.00 | 78 | |
| 20260506203719 | 65 | 0 | 1.7 | 0.0 | 0.00 | 0.00 | 0.00 | 78 | |
| 20260506202649 | 64 | 0 | 2.6 | 0.0 | 0.00 | 0.00 | 0.00 | 79 | |
| 20260506201619 | 64 | 0 | 1.7 | 0.0 | 0.00 | 0.00 | 0.00 | 79 | |
| 20260506200549 | 64 | 0 | 2.6 | 0.0 | 0.00 | 0.00 | 0.00 | 81 | |
| 20260506195519 | 63 | 0 | 2.6 | 0.0 | 0.00 | 0.00 | 0.00 | 82 | |
| 20260506194449 | 63 | 0 | 1.7 | 0.0 | 0.00 | 0.00 | 0.00 | 83 | |
| 20260506193449 | 63 | 0 | 0.9 | 0.0 | 0.00 | 0.00 | 0.00 | 83 | |
| 20260506192419 | 63 | 0 | 3.5 | 0.0 | 0.00 | 0.00 | 0.00 | 83 | |
| 20260506191419 | 62 | 0 | 0.9 | 0.0 | 0.00 | 0.00 | 0.00 | 84 | |
| 20260506190349 | 63 | 0 | 1.7 | 0.0 | 0.00 | 0.00 | 0.00 | 84 | |
| 20260506185319 | 62 | 0 | 0.9 | 0.0 | 0.00 | 0.00 | 0.00 | 86 | |
| 20260506184249 | 62 | 0 | 2.6 | 0.0 | 0.00 | 0.00 | 0.00 | 85 | |
| 20260506183219 | 62 | 0 | 1.7 | 0.0 | 0.00 | 0.00 | 0.00 | 85 | |
| 20260506182149 | 62 | 0 | 3.5 | 0.0 | 0.00 | 0.00 | 0.00 | 85 | |
| 20260506181150 | 64 | 0 | 1.7 | 0.0 | 0.00 | 0.00 | 0.00 | 81 | |
| 20260506180149 | 64 | 0 | 1.7 | 0.0 | 0.00 | 0.00 | 0.00 | 80 | |
| 20260506175119 | 65 | 0 | 0.9 | 0.0 | 0.00 | 0.00 | 0.00 | 77 | |
| 20260506174049 | 65 | 0 | 1.7 | 0.0 | 0.00 | 0.00 | 0.00 | 79 | |
| 20260506173049 | 63 | 0 | 0.9 | 0.0 | 0.00 | 0.00 | 0.00 | 82 | |
| 20260506172019 | 63 | 0 | 1.7 | 0.0 | 0.00 | 0.00 | 0.00 | 82 | |
| 20260506170949 | 63 | 0 | 1.7 | 0.0 | 0.00 | 0.00 | 0.00 | 82 | |
| 20260506165919 | 62 | 0 | 0.9 | 0.0 | 0.00 | 0.00 | 0.00 | 83 | |
| 20260506164849 | 62 | 0 | 1.7 | 0.0 | 0.00 | 0.00 | 0.00 | 84 | |
| 20260506163819 | 61 | 0 | 0.0 | 0.0 | 0.00 | 0.00 | 0.00 | 85 | |
| 20260506162749 | 60 | 0 | 0.9 | 0.0 | 0.00 | 0.00 | 0.00 | 88 | |
| 20260506161719 | 60 | 0 | 0.0 | 0.0 | 0.00 | 0.00 | 0.00 | 88 | |
| 20260506160649 | 60 | 0 | 0.0 | 0.0 | 0.00 | 0.00 | 0.00 | 88 | |
| 20260506155649 | 59 | 0 | 0.0 | 0.0 | 0.00 | 0.00 | 0.00 | 90 | |
| 20260506154619 | 59 | 0 | 0.0 | 0.0 | 0.00 | 0.00 | 0.00 | 91 | |
| 20260506153549 | 58 | 0 | 0.0 | 0.0 | 0.00 | 0.00 | 0.00 | 93 | |
| 20260506152549 | 57 | 0 | 0.0 | 0.0 | 0.00 | 0.00 | 0.00 | 96 | |
| 20260506151549 | 57 | 0 | 0.0 | 0.0 | 0.00 | 4.19 | 0.00 | 98 | |
| 20260506150519 | 57 | 0 | 0.0 | 0.0 | 0.00 | 4.19 | 0.00 | 99 | |
| 20260506145519 | 56 | 0 | 0.0 | 0.0 | 0.00 | 4.19 | 0.00 | 99 | |
| 20260506144519 | 56 | 0 | 0.0 | 0.0 | 0.00 | 4.19 | 0.00 | 99 | |
| 20260506143449 | 56 | 0 | 0.0 | 0.0 | 0.00 | 4.19 | 0.00 | 99 | |
| 20260506142420 | 55 | 0 | 0.0 | 0.0 | 0.00 | 4.19 | 0.00 | 99 | |
| 20260506141349 | 54 | 0 | 0.0 | 0.0 | 0.00 | 4.19 | 0.00 | 99 | |
| 20260506140349 | 54 | 0 | 0.0 | 0.0 | 0.00 | 4.19 | 0.00 | 99 | |
| 20260506135349 | 54 | 0 | 0.0 | 0.0 | 0.00 | 4.19 | 0.00 | 99 | |
| 20260506134349 | 54 | 0 | 0.0 | 0.0 | 0.00 | 4.19 | 0.00 | 99 | |
| 20260506133319 | 54 | 0 | 0.0 | 0.0 | 0.00 | 4.19 | 0.00 | 99 | |
| 20260506132249 | 54 | 0 | 0.0 | 0.0 | 0.00 | 4.19 | 0.00 | 99 | |
| 20260506131249 | 54 | 0 | 0.0 | 0.0 | 0.00 | 4.19 | 0.00 | 99 | |
| 20260506130219 | 54 | 0 | 0.0 | 0.0 | 0.00 | 4.19 | 0.00 | 99 | |
| 20260506125219 | 54 | 0 | 0.0 | 0.0 | 0.00 | 4.19 | 0.00 | 99 | |
| 20260506124219 | 54 | 0 | 0.0 | 0.0 | 0.00 | 4.19 | 0.00 | 99 | |
| 20260506123149 | 54 | 0 | 0.0 | 0.0 | 0.00 | 4.19 | 0.00 | 99 | |
| 20260506122149 | 54 | 0 | 0.0 | 0.0 | 0.00 | 4.19 | 0.00 | 99 | |
| 20260506121123 | 54 | 0 | 0.0 | 0.0 | 0.00 | 4.19 | 0.00 | 99 | |
| 20260506120050 | 54 | 0 | 0.0 | 0.0 | 0.00 | 4.19 | 0.00 | 99 | |
| 20260506115020 | 54 | 0 | 0.0 | 0.0 | 0.00 | 4.19 | 0.00 | 99 | |
| 20260506113949 | 54 | 0 | 0.0 | 0.0 | 0.00 | 4.19 | 0.00 | 99 | |
| 20260506112949 | 54 | 0 | 0.0 | 0.0 | 0.00 | 4.19 | 0.00 | 99 | |
| 20260506111920 | 54 | 0 | 0.0 | 0.0 | 0.00 | 4.19 | 0.00 | 99 | |
| 20260506110850 | 54 | 0 | 0.0 | 0.0 | 0.00 | 4.19 | 0.00 | 99 | |
| 20260506105850 | 54 | 0 | 0.0 | 0.0 | 0.00 | 4.19 | 0.00 | 99 | |
| 20260506104820 | 54 | 0 | 0.0 | 0.0 | 0.00 | 4.19 | 0.00 | 99 | |
| 20260506103750 | 54 | 0 | 0.0 | 0.0 | 0.00 | 4.19 | 0.00 | 99 | |
| 20260506102720 | 54 | 0 | 0.0 | 0.0 | 0.00 | 4.19 | 0.00 | 99 | |
| 20260506101650 | 54 | 0 | 0.0 | 0.0 | 0.00 | 4.19 | 0.00 | 99 | |
| 20260506100650 | 54 | 0 | 0.0 | 0.0 | 0.00 | 4.19 | 0.00 | 99 | |
| 20260506095650 | 54 | 0 | 0.0 | 0.0 | 0.00 | 4.19 | 0.00 | 99 | |
| 20260506094620 | 54 | 0 | 0.0 | 0.0 | 0.00 | 4.19 | 0.00 | 99 | |
| 20260506093550 | 54 | 0 | 0.0 | 0.0 | 0.00 | 4.19 | 0.00 | 99 | |
| 20260506092550 | 54 | 0 | 0.0 | 0.0 | 0.00 | 4.19 | 0.00 | 99 | |
| 20260506091550 | 54 | 0 | 0.0 | 0.0 | 0.00 | 4.19 | 0.00 | 99 | |
| 20260506090520 | 54 | 0 | 0.0 | 0.0 | 0.00 | 4.19 | 0.00 | 99 | |
| 20260506085450 | 54 | 0 | 0.0 | 0.0 | 0.00 | 4.19 | 0.00 | 99 | |
| 20260506084420 | 54 | 0 | 0.0 | 0.0 | 0.00 | 4.19 | 0.00 | 99 | |
| 20260506083420 | 54 | 0 | 0.0 | 0.0 | 0.00 | 4.19 | 0.00 | 99 | |
| 20260506082350 | 54 | 0 | 0.0 | 0.0 | 0.00 | 4.19 | 0.00 | 99 | |
| 20260506081350 | 54 | 0 | 0.0 | 0.0 | 0.00 | 4.19 | 0.00 | 98 | |
| 20260506080350 | 55 | 0 | 0.0 | 0.0 | 0.00 | 4.19 | 0.00 | 98 | |
| 20260506073250 | 55 | 0 | 0.0 | 0.0 | 0.00 | 4.19 | 0.00 | 98 | |
| 20260506072250 | 55 | 0 | 0.0 | 0.0 | 0.00 | 4.19 | 0.00 | 99 | |
| 20260506071220 | 55 | 0 | 0.0 | 0.0 | 0.00 | 4.21 | 0.00 | 98 |